{"data":{"norad_id":63415,"intl_designator":"2025-065S","name":"STARLINK-33664","alt_names":[],"object_type":"PAYLOAD","status":"ACTIVE","operator":null,"country":"US","launch_date":"2025-03-31","launch_site_code":"AFETR","launch_vehicle":null,"mission":null,"orbit_class":"UNKNOWN","rcs_meters":null,"size_class":null,"mass_kg":null,"dimensions":null,"purposes":["comms"],"wikipedia_slug":null,"has_3d_model":false,"image_url":null,"decayed_at":null,"tle_current":{"epoch":"2026-09-20T05:42:05.552064Z","epoch_age_seconds":181572,"freshness":"STALE","line1":"1 63415U 25065S   26263.23756426  .00007985  00000+0  29935-3 0  9990","line2":"2 63415  43.0059  88.3163 0001468 259.3280 100.7407 15.27584712 82594","mean_motion":15.27584712,"eccentricity":0.0001468,"inclination_deg":43.0059,"raan_deg":88.3163,"arg_perigee_deg":259.328,"mean_anomaly_deg":100.7407,"bstar":0.00029935,"rev_number":8259,"period_min":94.266457937686,"perigee_km":482.02776660515,"apogee_km":484.04220670043,"semimajor_km":6861.1719866528,"source":"CELESTRAK","updated_at":"2026-09-21T09:00:34.981010Z"}}}